Location: Columbia
(38.9520°N, 92.3340°W)
Time: 20:50:49
(UTC-06:00)

Iridium 15 - Visible Passes

Search period start: 20 February 2017 00:00
Search period end: 02 March 2017 00:00
Orbit: 776 x 779 km, 86.4° (Epoch: 20 February)

Date Brightness Start Highest point End Pass type
(mag) Time Alt. Az. Time Alt. Az. Time Alt. Az.
20 Feb 6.6 06:18:08 10° N 06:23:20 64° E 06:28:30 10° SSE visible
20 Feb 6.7 19:13:35 10° SSW 19:18:42 58° W 19:23:51 10° N visible
21 Feb 7.9 05:44:57 10° NNE 05:49:42 34° E 05:54:24 10° SSE visible
21 Feb 6.0 18:39:59 10° S 18:45:10 75° E 18:50:23 10° N visible
21 Feb 9.3 20:24:46 10° W 20:26:28 11° WNW 20:28:11 10° NW visible
22 Feb 8.9 05:12:18 10° NNE 05:15:56 19° ENE 05:19:32 10° ESE visible
22 Feb 8.5 19:48:39 10° SW 19:52:36 22° WNW 19:56:35 10° NNW visible
23 Feb 6.1 06:18:12 10° N 06:23:27 87° W 06:28:39 10° S visible
23 Feb 7.5 19:14:00 10° SSW 19:18:52 39° W 19:23:45 10° NNW visible
24 Feb 7.1 05:44:49 10° N 05:49:53 50° E 05:54:56 10° SSE visible
24 Feb 6.3 18:40:04 10° S 18:45:15 75° W 18:50:29 10° N visible
25 Feb 8.3 05:11:48 10° NNE 05:16:12 27° E 05:20:34 10° SE visible
25 Feb 9.1 19:49:58 10° WSW 19:52:54 15° WNW 19:55:49 10° NW visible
26 Feb 9.1 04:39:30 10° NE 04:42:23 15° ENE 04:45:14 10° ESE visible
26 Feb 8.3 19:14:41 10° SW 19:19:04 27° W 19:23:30 10° NNW visible
27 Feb 6.3 05:44:48 10° N 05:50:01 74° E 05:55:14 10° S visible
27 Feb 7.1 18:40:21 10° SSW 18:45:24 51° W 18:50:29 10° N visible
28 Feb 7.5 05:11:32 10° NNE 05:16:25 39° E 05:21:16 10° SSE visible
01 Mar 8.6 04:38:44 10° NNE 04:42:41 21° ENE 04:46:36 10° SE visible
01 Mar 8.9 19:15:41 10° WSW 19:19:21 19° WNW 19:23:01 10° NNW visible
